Time,TemperatureF,DewpointF,PressureIn,WindDirection,WindDirectionDegrees,WindSpeedMPH,WindSpeedGustMPH,Humidity,HourlyPrecipIn,Conditions,Clouds,dailyrainin,SoftwareType,DateUTC
2013-09-16 00:12:00,54.0,51.0,30.25,SSE,155,0.0,0.0,91,0.00,,,0.84,,2013-09-16 06:12:00,
2013-09-16 00:22:00,54.0,52.0,30.25,SSE,155,0.0,0.0,92,0.00,,,0.83,,2013-09-16 06:22:00,
2013-09-16 00:52:00,54.0,52.0,30.24,SSE,155,0.0,0.0,93,0.00,,,0.83,,2013-09-16 06:52:00,
2013-09-16 01:11:00,54.0,52.0,30.24,SSE,155,0.0,0.0,93,0.00,,,0.83,,2013-09-16 07:11:00,
2013-09-16 01:22:00,54.0,52.0,30.24,SSE,155,0.0,0.0,93,0.00,,,0.83,,2013-09-16 07:22:00,
2013-09-16 01:52:00,54.0,52.0,30.23,SSE,155,0.0,0.0,94,0.00,,,0.83,,2013-09-16 07:52:00,
2013-09-16 02:22:00,54.0,52.0,30.22,ESE,123,0.0,5.0,94,0.00,,,0.83,,2013-09-16 08:22:00,
2013-09-16 02:52:00,54.0,53.0,30.22,ESE,113,2.0,8.0,95,0.00,,,0.83,,2013-09-16 08:52:00,
2013-09-16 03:22:00,54.0,53.0,30.21,ESE,112,7.0,12.0,95,0.01,,,0.84,,2013-09-16 09:22:00,
2013-09-16 03:53:00,54.0,53.0,30.20,SE,126,7.0,15.0,95,0.01,,,0.85,,2013-09-16 09:53:00,
2013-09-16 04:23:00,54.0,53.0,30.20,ESE,116,5.0,10.0,95,0.01,,,0.85,,2013-09-16 10:23:00,
2013-09-16 04:53:00,54.0,53.0,30.20,ESE,117,3.0,8.0,95,0.00,,,0.85,,2013-09-16 10:53:00,
2013-09-16 05:22:00,54.0,53.0,30.20,ESE,117,0.0,5.0,95,0.00,,,0.85,,2013-09-16 11:22:00,
2013-09-16 05:52:00,54.0,53.0,30.20,ESE,117,0.0,6.0,95,0.00,,,0.85,,2013-09-16 11:52:00,
2013-09-16 06:12:00,54.0,53.0,30.20,ESE,117,0.0,6.0,95,0.00,,,0.85,,2013-09-16 12:12:00,
2013-09-16 06:22:00,54.0,53.0,30.21,ESE,117,3.0,6.0,95,0.00,,,0.85,,2013-09-16 12:22:00,
2013-09-16 06:52:00,54.0,53.0,30.21,ESE,117,0.0,6.0,96,0.00,,,0.77,,2013-09-16 12:52:00,
2013-09-16 07:22:00,54.0,53.0,30.22,ESE,107,0.0,7.0,96,0.00,,,0.72,,2013-09-16 13:22:00,
2013-09-16 07:52:00,54.0,53.0,30.22,ESE,109,4.0,8.0,96,0.00,,,0.66,,2013-09-16 13:52:00,
2013-09-16 08:11:00,54.0,53.0,30.22,SE,131,4.0,8.0,96,0.01,,,0.63,,2013-09-16 14:11:00,
2013-09-16 08:22:00,55.0,54.0,30.22,ESE,121,0.0,6.0,96,0.01,,,0.62,,2013-09-16 14:22:00,
2013-09-16 08:52:00,55.0,54.0,30.22,SE,130,1.0,8.0,95,0.00,,,0.59,,2013-09-16 14:52:00,
2013-09-16 09:22:00,55.0,54.0,30.22,SE,130,0.0,7.0,95,0.00,,,0.56,,2013-09-16 15:22:00,
2013-09-16 09:53:00,56.0,55.0,30.22,SE,134,0.0,1.0,95,0.00,,,0.54,,2013-09-16 15:53:00,
2013-09-16 10:23:00,56.0,54.0,30.22,SE,136,2.0,8.0,94,0.00,,,0.51,,2013-09-16 16:23:00,
2013-09-16 10:52:00,57.0,55.0,30.21,SE,136,1.0,8.0,93,0.00,,,0.49,,2013-09-16 16:52:00,
2013-09-16 11:23:00,58.0,56.0,30.20,SE,137,0.0,0.0,92,0.00,,,0.44,,2013-09-16 17:23:00,
2013-09-16 11:53:00,59.0,55.0,30.19,SE,137,0.0,0.0,88,0.00,,,0.39,,2013-09-16 17:53:00,
2013-09-16 12:12:00,60.0,56.0,30.18,SE,144,0.0,6.0,86,0.00,,,0.34,,2013-09-16 18:12:00,
2013-09-16 12:22:00,60.0,55.0,30.18,SE,144,0.0,0.0,85,0.00,,,0.32,,2013-09-16 18:22:00,
2013-09-16 12:52:00,62.0,56.0,30.17,SE,144,0.0,0.0,80,0.00,,,0.28,,2013-09-16 18:52:00,
2013-09-16 13:11:00,63.0,56.0,30.16,SE,144,0.0,0.0,77,0.00,,,0.24,,2013-09-16 19:11:00,
2013-09-16 13:22:00,65.0,57.0,30.15,SE,144,0.0,0.0,75,0.00,,,0.23,,2013-09-16 19:22:00,
2013-09-16 13:53:00,65.0,56.0,30.15,SE,145,3.0,7.0,72,0.00,,,0.21,,2013-09-16 19:53:00,
2013-09-16 14:22:00,66.0,56.0,30.13,SE,145,0.0,0.0,71,0.00,,,0.19,,2013-09-16 20:22:00,
2013-09-16 14:43:00,68.0,57.0,30.12,ESE,113,1.0,7.0,69,0.00,,,0.15,,2013-09-16 20:43:00,
2013-09-16 14:52:00,68.0,57.0,30.11,ESE,115,1.0,6.0,69,0.00,,,0.14,,2013-09-16 20:52:00,
2013-09-16 15:22:00,68.0,58.0,30.11,SE,129,0.0,7.0,70,0.00,,,0.11,,2013-09-16 21:22:00,
2013-09-16 15:55:00,69.0,58.0,30.09,SSE,163,2.0,9.0,68,0.00,,,0.09,,2013-09-16 21:55:00,
2013-09-16 16:24:00,69.0,57.0,30.09,South,182,5.0,8.0,66,0.00,,,0.07,,2013-09-16 22:24:00,
2013-09-16 16:53:00,69.0,58.0,30.07,SE,140,1.0,8.0,67,0.00,,,0.05,,2013-09-16 22:53:00,
2013-09-16 17:22:00,70.0,59.0,30.07,South,169,0.0,7.0,67,0.00,,,0.05,,2013-09-16 23:22:00,
2013-09-16 17:52:00,70.0,57.0,30.07,SE,141,5.0,8.0,64,0.00,,,0.05,,2013-09-16 23:52:00,
2013-09-16 18:21:00,70.0,58.0,30.06,South,188,0.0,6.0,65,0.00,,,0.05,,2013-09-17 00:21:00,
2013-09-16 18:42:00,71.0,59.0,30.06,South,188,0.0,0.0,66,0.00,,,0.05,,2013-09-17 00:42:00,
2013-09-16 18:52:00,72.0,60.0,30.06,South,188,0.0,0.0,65,0.00,,,0.05,,2013-09-17 00:52:00,
2013-09-16 19:11:00,69.0,58.0,30.06,South,188,0.0,0.0,68,0.00,,,0.04,,2013-09-17 01:11:00,
2013-09-16 19:21:00,68.0,59.0,30.06,South,188,0.0,0.0,72,0.00,,,0.03,,2013-09-17 01:21:00,
2013-09-16 19:42:00,65.0,58.0,30.05,South,188,0.0,0.0,77,0.00,,,0.03,,2013-09-17 01:42:00,
2013-09-16 19:52:00,64.0,58.0,30.05,South,188,0.0,0.0,80,0.00,,,0.03,,2013-09-17 01:52:00,
2013-09-16 20:11:00,63.0,58.0,30.06,South,188,0.0,0.0,83,0.00,,,0.03,,2013-09-17 02:11:00,
2013-09-16 20:22:00,62.0,57.0,30.06,South,188,0.0,0.0,85,0.00,,,0.03,,2013-09-17 02:22:00,
2013-09-16 20:42:00,61.0,57.0,30.06,South,188,0.0,0.0,86,0.00,,,0.03,,2013-09-17 02:42:00,
2013-09-16 20:52:00,61.0,57.0,30.06,South,188,0.0,0.0,87,0.00,,,0.03,,2013-09-17 02:52:00,
2013-09-16 21:23:00,60.0,57.0,30.07,South,188,0.0,0.0,89,0.00,,,0.03,,2013-09-17 03:23:00,
2013-09-16 21:54:00,59.0,56.0,30.07,South,188,0.0,0.0,90,0.00,,,0.03,,2013-09-17 03:54:00,
2013-09-16 22:24:00,59.0,56.0,30.07,SSW,195,0.0,0.0,91,0.00,,,0.03,,2013-09-17 04:24:00,
2013-09-16 22:53:00,58.0,56.0,30.07,WSW,239,0.0,0.0,92,0.00,,,0.03,,2013-09-17 04:53:00,
2013-09-16 23:23:00,58.0,56.0,30.07,WSW,239,0.0,0.0,92,0.00,,,0.03,,2013-09-17 05:23:00,
2013-09-16 23:52:00,57.0,55.0,30.07,WSW,241,0.0,0.0,93,0.00,,,0.03,,2013-09-17 05:52:00,